Showing default

HEALTHSAT 1, 22827

Orbit data source: Space-Track

HEALTHSAT 1, 22827 is a payload satellite owned by AMSAT-I (US) in SSO that was launched on Sun, 26 Sep 1993 UTC via an ARIANE 40 launch vehicle from the French Guiana (FRGUI). Payload-class satellites include a variety of spacecraft equipped with specific instruments for various scientific and technological missions. These include communications satellites like Starlink; space stations such as the ISS; scientific satellites like the Hubble; Earth observation satellites from companies like Planet Labs, Umbra, and HawkEye 360; GPS; miniature CubeSats for education and research; and military/defense satellites.

Loading next visibility...
Identifier
22827, 1993-061E
Orbit
SSO
Country
Flag of USUS
Related business
Manufacturer
AMSAT-I
Mission
Non-operational Amateur Communications
Bus & Motor
MICROSAT, Unknown motor
Mass
12 kg wet, 12 kg dry
Launch date (UTC)
1993-09-26 (32 years ago)
Launch vehicle
ARIANE 40
Launch site
French Guiana (FRGUI)
Object type
Payload
Rocket body
Debris
Shape & HBR
Box, 0.1 m
Radar Cross Section
0.135 m², Medium (>0.1 m² and < 1m²)

Expand to show TLE details & history
Last TLE update: 10 hours ago

TLE from 10 hours ago
0 HEALTHSAT 1
1 22827U 93061E   25258.18680913  .00000210  00000-0  94202-4 0  9992
2 22827  98.6789 321.9889 0009912 114.8300 265.7387 14.32384647668727
Epoch: 2025-09-15T04:29Z
TLE epoch observation values (Epoch: 2025-09-15T04:29:00.308Z)
Latitude
20.21577°
Longitude
-102.86259°
Altitude
786.84 km
Speed
7.462 km/s
True Right ascension
21h 15m 08s
True Declination
20° 06' 18"
Sunlit
Object was in full shadow at epoch
Visualization orbit readout
Latitude
Unknown
Longitude
Unknown
Altitude
Unknown
Speed
Unknown
Apparent Right ascension
Unknown
Apparent Declination
Unknown
Sunlit
N/A
Visualization observer readout
Local Sidereal Time
06:52:11
Azimuth
Unknown
Elevation
Unknown
Doppler factor
Unknown
Orbital elements
Apogee altitude
788.008 km
Perigee altitude
773.815 km
Semi-major axis
7,159.049 km
Eccentricity
0.00099
Inclination
98.6789°
RAAN
321.9889°
Arg. of periapsis
114.83°
True anomaly
265.62544°
Mean anomaly
265.7387°
Eccentric anomaly
265.68207°
Mean motion
3.58311 °/min
Orbital period
100.47 mins
BSTAR
0.000094202
Loading maneuver chart data...
Computing Atmospheric mass density...
Loading historical data...
Loading historical data...
Loading historical data...
Loading historical data...
Loading historical data...
Loading historical data...
Loading historical data...

Documentation

Showing up to 5 results
|